Regional Weather Roundup
Issued by NWS Sterling, VA

Home | Current Version | Previous Version | Text Only | Print | Product List | Glossary Off
Versions: 1 2 3 4 5 6 7 8 9 10 11 12 13 14 15 16 17 18 19 20 21 22 23 24 25 26 27 28 29 30 31 32 33 34 35 36 37 38 39 40 41 42 43 44 45 46 47 48 49 50

000
ASUS41 KLWX 281010
RWRLWX

REGIONAL WEATHER ROUNDUP
NATIONAL WEATHER SERVICE BALTIMORE MD/WASHINGTON DC
600 AM EDT SAT MAR 28 2015

Note: "FAIR" indicates few or no clouds below 12,000 feet
with no significant weather and/or obstructions to visibility.
 TC=TEMPERATURE CELSIUS

 * =Non NWS site. Station does not report precipitation (e.g. rain,
    snow, etc.), thunder, or fog.

DCZ001-MDZ009-015-VAZ040>042-051-053>054-281100-
WASHINGTON METRO

CITY           SKY/WX    TMP DP  RH WIND       PRES   REMARKS
WASHINGTON NAT CLOUDY    36  17  46 NW16G25   29.91R WCI  26
DULLES         PTCLDY    30  15  53 NW17      29.92R WCI  18
ANDREWS AFB    MOCLDY    33  17  52 NW18      29.88R WCI  22
FT BELVOIR     CLOUDY    33  17  50 NW12G25   29.92R WCI  25
QUANTICO       CLOUDY    34  16  47 N15G25    29.94R WCI  24
COLLEGE PARK*  MOCLDY    34  19  55 NW7       29.89R
LEESBURG*      CLEAR     30  19  64 N14G24    29.94R WCI  20
MANASSAS*      CLOUDY    32  21  64 N16G23    29.93R WCI  21
GAITHERSBURG*  PTCLDY    28  16  59 NW15G21   29.92R WCI  17

$$

MDZ006>007-011-014-281100-
BALTIMORE METRO

CITY           SKY/WX    TMP DP  RH WIND       PRES   REMARKS
BWI AIRPORT    MOCLDY    33  17  51 NW13      29.87R WCI  24
MD SCIENCE CTR   N/A     35  17  47 MISG      29.87R
MARTIN STATE   MOCLDY    34  21  60 W12       29.88R WCI  25
ANNAPOLIS      CLOUDY    36  20  52 NW13      29.87R WCI  27

$$

MDZ012-015-019>023-281100-
MARYLAND EASTERN SHORE

CITY           SKY/WX    TMP DP  RH WIND       PRES   REMARKS
OCEAN CITY     CLOUDY    37  29  72 NW13      29.79R WCI  29
SALISBURY      CLOUDY    36  26  67 NW16      29.81R WCI  26
BAY BRIDGE AP*   N/A     36  19  51 NW16G24   29.87R WCI  26
CAMBRIDGE*     PTCLDY    37  23  56 NW17G23   29.84R WCI  28
EASTON*        MOCLDY    37  25  61 N10G21    29.88R

$$

MDZ017>025-281100-
SOUTHERN MARYLAND

CITY           SKY/WX    TMP DP  RH WIND       PRES   REMARKS
PATUXENT RIVER CLOUDY    36  20  52 NW18G24   29.86R WCI  26
ST INIGOES     CLOUDY    36  22  56 NW10      29.86R WCI  28
LEONARDTOWN*   CLOUDY    34  23  64 NW7       29.88R

$$

MDZ003>005-281100-
NORTH CENTRAL MARYLAND

CITY           SKY/WX    TMP DP  RH WIND       PRES   REMARKS
FREDERICK*     PTCLDY    32  14  47 NW12      29.95R WCI  23
HAGERSTOWN APT CLEAR     25  10  53 NW20      29.91R WCI  11
WESTMINSTER*   CLOUDY    28  16  59 NW14G20   29.86R WCI  17

$$

MDZ501>502-281100-
WESTERN MARYLAND

CITY           SKY/WX    TMP DP  RH WIND       PRES   REMARKS
OAKLAND*       PTCLDY    10  10 100 NW8       29.81S WCI  -1
CUMBERLAND*    CLEAR     25   9  50 NW9G21    30.01R WCI  15

$$

VAZ025>031-281100-
SHENANDOAH VALLEY

CITY           SKY/WX    TMP DP  RH WIND       PRES   REMARKS
WINCHESTER*    CLEAR     28   9  43 NW15G24   29.94R WCI  17
FRONT ROYAL*   CLOUDY    28  10  47 NW6G20    29.94R
LURAY*         CLOUDY    30  21  69 N13       29.92R WCI  20
NEW MARKET*    CLOUDY    26  12  55 N8        29.92R WCI  18
STAUNTON*      CLOUDY    29   9  43 NW13G23   29.92R WCI  19
WAYNESBORO*    CLOUDY    28  11  49 NW14G21   29.88R WCI  16

$$

WVZ021-048>050-054>055-281100-
EASTERN WEST VIRGINIA PANHANDLE

CITY           SKY/WX    TMP DP  RH WIND       PRES   REMARKS
MARTINSBURG    CLEAR     27   9  46 NW13      29.95R WCI  16
PETERSBURG*    CLOUDY    25  10  52 N12       29.97R WCI  14

$$

VAZ036>039-050-281100-
CENTRAL FOOTHILLS

CITY           SKY/WX    TMP DP  RH WIND       PRES   REMARKS
CHARLOTTESVILL CLOUDY    32  17  54 NW7       29.91R
CULPEPER*      CLOUDY    34  19  55 N14G20    29.94R WCI  24
ORANGE*        CLOUDY    32  19  59 NW6       29.93R
GORDONSVILLE*  CLOUDY    32  16  51 N3        29.91R
WARRENTON*     CLOUDY    33  25  73 NW10      29.92R WCI  24

$$

VAZ055>057-281100-
NORTH AND CENTRAL PIEDMONT

CITY           SKY/WX    TMP DP  RH WIND       PRES   REMARKS
FREDERICKSBRG* PTCLDY    34  19  54 NW14G21   29.92R WCI  25
STAFFORD*      MOCLDY    31  18  58 NW10G17   29.96R WCI  23

$$

NCZ024-NYZ072-PAZ021-071-VAZ022-071-281100-
OTHER REGIONAL OBSERVATIONS

CITY           SKY/WX    TMP DP  RH WIND       PRES   REMARKS
NEW YORK CITY  CLOUDY    36  20  52 N9        29.78S WCI  29
PHILADELPHIA   CLOUDY    36  21  54 N17G28    29.82R WCI  26
PITTSBURGH     FLURRIES  16   6  65 NW15      30.01S WCI   1
ROANOKE        MOCLDY    28   8  43 W16       29.96R WCI  16
RICHMOND       CLOUDY    36  21  54 N12       29.90R WCI  28
RALEIGH        PTCLDY    38  28  67 NW5       29.91R

$$

ANZ530>537-281100-
MARINE OBSERVATIONS

STATION/POSITION TIME  TEMP    WIND        PRES
                       AIR SEA DIR/SP/G
                 (UTC) (F)     (DEG/KT/KT) (MB)
THOMAS PT LIGHT  1000                        N/A
BALT KEY BRIDGE  0900   36     300/ 17/ 20 1010.6S
COVE POINT       0900   36     340/ 26/ 29 1010.1R
LEWISETTA        0900   38 45              1010.5R
SOLOMONS ISLAND  0900      43                N/A
PINEY POINT      0912          350/ 20/ 22   N/A

$$




USA.gov is the U.S. government's official web portal to all federal, state and local government web resources and services.